Powrót do katalogu

STARLINK-36688

AktywnyŁącznośćSSO
NORAD 67656·PAYLOAD·🇺🇸 United States

Wystrzelony Feb 2, 2026 z Vandenberg Space Force Base

Loading…

Następne Przeloty (najbliższe 24 godziny)

TLE

ŚwieżeSource: CelesTrak SupGP

Epoka: Sep 15, 2026, 03:15 UTC

1 67656C 26022J   26258.13590278 -.00040794  00000+0 -12663-2 0  2583
2 67656  97.2843 289.8349 0000964  94.1986  96.3334 15.33460739    14

Śledź STARLINK-36688 w czasie rzeczywistym z AllMySat

Download on the App Store